Weather in Ust-Erba

Russia / Republic of Khakassia     54°26′45″N   91°09′47″E
temp.,
°C
wind,
m/s
gust,
m/s
humid.,
%
clouds,
%
prec.,
mm/h
press.,
hPa
HPBL,
m
8 december, wed
wed801:00−7ese1193100 0.0 101912
04:00−7wsw369151 0.1 102288
07:00−8wnw49765 0.3 1027199
10:00−14nnw22875 0.0 103139
13:00−11nne11836 0.0 1033101
16:00−14n118865 0.0 103411
19:00−17nne11926 0.0 103613
22:00−19n119599 0.0 103715
9 december, thu
thu901:00−19n119652 0.0 103817
04:00−19nnw119755 0.0 103819
07:00−16nw1193100 0.0 104046
10:00−15wnw1191100 0.1 104250
13:00−13wsw1178100 0.1 1043198
16:00−15ssw0087100 0.0 104434
19:00−16se1191100 0.0 104632
22:00−16se1195100 0.0 104633
10 december, fri
fri1001:00−18e1197100 0.0 104626
04:00−20e2298100 0.0 104627
07:00−19ese2294100 0.0 104645
10:00−19ese2295100 0.0 104651
13:00−15se2385100 0.0 1044172
16:00−14se2385100 0.0 1043182
19:00−15ese2293100 0.1 104479
22:00−15ese229590 0.2 104462
11 december, sat
sat1101:00−15e2296100 0.2 104436
04:00−15e2296100 0.0 104443
07:00−13ese2295100 0.1 1043101
10:00−12se239591 0.4 1043149
13:00−10ese2490100 0.4 1041218
16:00−11e2395100 0.0 104054
19:00−12ese2396100 0.0 103850
22:00−13e2298100 0.0 103536
12 december, sun
sun1201:00−12ese3396100 0.0 103351
04:00−12ese3492100 0.0 103066
07:00−14ese3491100 0.0 102854
10:00−14ese3488100 0.0 102763
13:00−12ese3584100 0.0 1024155
16:00−13ese3486100 0.0 102373
19:00−13ese2387100 0.0 102351
22:00−13ese2288100 0.0 102250